Terminal Aerodrome Forecast
Issued by NWS Jackson, KY

Home | Current Version | Previous Version | Text Only | Print | Product List | Glossary On
Versions: 1 2 3 4 5 6 7 8 9 10 11 12 13 14 15 16 17 18
000
FTUS43 KJKL 281500 AAB
TAFJKL
TAF AMD
KJKL 281528Z 2815/2912 29010G15KT P6SM BKN025 OVC045
     FM290600 VRB03KT P6SM OVC020=

USA.gov is the U.S. government's official web portal to all federal, state and local government web resources and services.